Terug naar catalogus

FENGYUN 1C DEB

ActiefPO
NORAD 31773·DEBRIS·🇨🇳 China

Gelanceerd May 10, 1999 vanaf Taiyuan Satellite Launch Center

Loading…

Volgende Passages (komende 24 uur)

TLE

VersSource: Space-Track

Epoch: Sep 13, 2026, 07:14 UTC

1 31773U 99025CFY 26256.30174844  .00007367  00000-0  97549-3 0  9998
2 31773  98.9476 281.9618 0035435  42.1861 318.2065 14.79817501692277

Volg FENGYUN 1C DEB in realtime met AllMySat

Download on the App Store